{"data":{"norad_id":64006,"intl_designator":"2025-101N","name":"STARLINK-33931","alt_names":[],"object_type":"PAYLOAD","status":"ACTIVE","operator":null,"country":"US","launch_date":"2025-05-14","launch_site_code":"AFETR","launch_vehicle":null,"mission":null,"orbit_class":"UNKNOWN","rcs_meters":null,"size_class":null,"mass_kg":null,"dimensions":null,"purposes":["comms"],"wikipedia_slug":null,"has_3d_model":false,"image_url":null,"decayed_at":null,"tle_current":{"epoch":"2026-05-24T21:25:27.214176Z","epoch_age_seconds":94496,"freshness":"FRESH","line1":"1 64006U 25101N   26144.89267609  .00030756  00000+0  11222-2 0  9999","line2":"2 64006  42.9998 287.2486 0001555 286.4108  73.6572 15.27590079 58739","mean_motion":15.27590079,"eccentricity":0.0001555,"inclination_deg":42.9998,"raan_deg":287.2486,"arg_perigee_deg":286.4108,"mean_anomaly_deg":73.6572,"bstar":0.0011222,"rev_number":5873,"period_min":94.266126744071,"perigee_km":481.95200630875,"apogee_km":484.08582579864,"semimajor_km":6861.1559160537,"source":"CELESTRAK","updated_at":"2026-05-25T13:38:20.220111Z"}}}